GW5567 Weather Reports


Display with metric or nautical units.
time (UTC)temp
F
wind
direction
speed
MPH
gust
MPH
rain 1hr
in
rain 24hr
in
rain mn
in
humidity
%
barometer
mb
20260508000058 79 238 5.0 8.0 0.00 0.00 0.00 20 1012.0
20260507234559 79 0 2.0 10.0 0.00 0.00 0.00 21 1012.2
20260507233055 79 220 2.0 7.0 0.00 0.00 0.00 22 1012.1
20260507231559 79 211 4.0 8.0 0.00 0.00 0.00 22 1012.2
20260507230053 78 179 3.0 8.0 0.00 0.00 0.00 23 1012.4
20260507224559 78 233 3.0 8.0 0.00 0.00 0.00 24 1012.6
20260507223058 79 213 6.0 11.0 0.00 0.00 0.00 24 1012.7
20260507221557 77 226 3.0 10.0 0.00 0.00 0.00 23 1012.7
20260507220055 77 258 3.0 10.0 0.00 0.00 0.00 24 1013.1
20260507214557 77 203 5.0 8.0 0.00 0.00 0.00 25 1013.2
20260507213055 76 167 5.0 15.0 0.00 0.00 0.00 24 1013.2
20260507211600 76 178 5.0 10.0 0.00 0.00 0.00 26 1013.5
20260507210059 75 180 4.0 14.0 0.00 0.00 0.00 29 1013.7
20260507204601 75 181 5.0 13.0 0.00 0.00 0.00 29 1013.9
20260507203100 75 171 4.0 12.0 0.00 0.00 0.00 31 1014.1
20260507201610 74 238 6.0 13.0 0.00 0.00 0.00 33 1014.2
20260507200118 73 213 4.0 14.0 0.00 0.00 0.00 36 1014.3
20260507194558 73 185 7.0 15.0 0.00 0.00 0.00 35 1014.4
20260507193058 72 203 5.0 13.0 0.00 0.00 0.00 38 1014.4
20260507191559 72 185 7.0 13.0 0.00 0.00 0.00 38 1014.5
20260507184559 70 202 8.0 14.0 0.00 0.00 0.00 41 1014.7
20260507183054 70 234 5.0 11.0 0.00 0.00 0.00 42 1014.9
20260507181556 69 192 7.0 12.0 0.00 0.00 0.00 43 1015.0
20260507180057 68 240 7.0 16.0 0.00 0.00 0.00 43 1015.2
20260507174601 68 202 6.0 13.0 0.00 0.00 0.00 44 1015.1
20260507173102 67 179 8.0 14.0 0.00 0.00 0.00 44 1015.2
20260507171604 66 184 7.0 18.0 0.00 0.00 0.00 48 1015.3
20260507170059 66 194 7.0 18.0 0.00 0.00 0.00 49 1015.3
20260507164554 65 215 7.0 15.0 0.00 0.00 0.00 49 1015.5
20260507163110 64 198 7.0 17.0 0.00 0.00 0.00 52 1015.2
20260507161554 63 184 7.0 18.0 0.00 0.00 0.00 55 1015.2
20260507160057 62 205 7.0 17.0 0.00 0.00 0.00 58 1015.2
20260507154553 61 182 5.0 15.0 0.00 0.00 0.00 60 1015.5
20260507153101 60 198 6.0 10.0 0.00 0.00 0.00 62 1015.5
20260507151555 59 252 2.0 7.0 0.00 0.00 0.00 64 1015.4
20260507150055 59 280 5.0 11.0 0.00 0.00 0.00 63 1015.4
20260507144616 59 134 1.0 8.0 0.00 0.00 0.00 65 1015.4
20260507143056 59 266 1.0 9.0 0.00 0.00 0.00 66 1015.2
20260507141622 58 178 5.0 10.0 0.00 0.00 0.00 66 1015.0
20260507140058 58 195 4.0 9.0 0.00 0.00 0.00 66 1014.9
20260507134556 58 138 4.0 10.0 0.00 0.00 0.00 68 1014.6
20260507133056 57 175 3.0 7.0 0.00 0.00 0.00 69 1014.7
20260507131553 57 171 3.0 7.0 0.00 0.00 0.00 70 1014.7
20260507130104 58 121 1.0 6.0 0.00 0.00 0.00 68 1014.5
20260507124556 58 217 3.0 8.0 0.00 0.00 0.00 66 1014.4
20260507123053 58 217 5.0 12.0 0.00 0.00 0.00 66 1014.1
20260507121556 58 210 6.0 15.0 0.00 0.00 0.00 68 1014.2
20260507120058 57 250 4.0 13.0 0.00 0.00 0.00 69 1014.4
20260507114600 57 245 3.0 10.0 0.00 0.00 0.00 69 1014.4
20260507113055 57 173 1.0 6.0 0.00 0.00 0.00 68 1014.6
20260507111554 57 108 1.0 6.0 0.00 0.00 0.00 67 1014.5
20260507110059 57 196 0.0 9.0 0.00 0.00 0.00 66 1014.4
20260507104556 57 181 4.0 10.0 0.00 0.00 0.00 66 1014.4
20260507103113 58 205 1.0 5.0 0.00 0.00 0.00 64 1014.5
20260507101556 59 167 2.0 9.0 0.00 0.00 0.00 64 1014.4
20260507100054 60 177 3.0 10.0 0.00 0.00 0.00 63 1014.6
20260507094557 59 271 4.0 9.0 0.00 0.00 0.00 63 1014.5
20260507093100 60 240 5.0 12.0 0.00 0.00 0.00 61 1014.6
20260507091559 61 182 3.0 12.0 0.00 0.00 0.00 59 1014.3
20260507090053 60 175 2.0 5.0 0.00 0.00 0.00 60 1014.3
20260507084553 60 193 0.0 6.0 0.00 0.00 0.00 59 1014.1
20260507083056 60 261 1.0 4.0 0.00 0.00 0.00 59 1014.0
20260507081557 60 221 2.0 5.0 0.00 0.00 0.00 59 1013.9
20260507080054 61 30 1.0 5.0 0.00 0.00 0.00 56 1013.8
20260507074552 63 173 3.0 13.0 0.00 0.00 0.00 54 1013.6
20260507073057 63 218 8.0 22.0 0.00 0.00 0.00 53 1013.3
20260507071557 63 193 8.0 23.0 0.00 0.00 0.00 53 1013.1
20260507070059 64 136 10.0 22.0 0.00 0.00 0.00 52 1013.2
20260507064553 63 153 9.0 20.0 0.00 0.00 0.00 52 1013.2
20260507063056 63 188 8.0 23.0 0.00 0.00 0.00 52 1013.3
20260507061556 63 177 6.0 17.0 0.00 0.00 0.00 52 1013.3
20260507054552 66 190 8.0 18.0 0.00 0.00 0.00 49 1013.2
20260507053058 66 184 6.0 15.0 0.00 0.00 0.00 48 1013.2
20260507051556 67 184 6.0 13.0 0.00 0.00 0.00 48 1013.3
20260507050055 68 199 6.0 15.0 0.00 0.00 0.00 46 1013.3
20260507044606 69 163 8.0 16.0 0.00 0.00 0.00 45 1013.2
20260507043104 70 182 7.0 21.0 0.00 0.00 0.00 45 1013.2
20260507041552 70 196 8.0 17.0 0.00 0.00 0.00 45 1013.2
20260507040058 70 107 8.0 20.0 0.00 0.00 0.00 45 1012.9
20260507034608 71 200 9.0 19.0 0.00 0.00 0.00 45 1012.6
20260507033059 72 184 8.0 21.0 0.00 0.00 0.00 44 1012.2
20260507031553 72 190 10.0 24.0 0.00 0.00 0.00 43 1011.9
20260507030100 73 184 6.0 21.0 0.00 0.00 0.00 42 1011.8
20260507024558 73 319 4.0 13.0 0.00 0.00 0.00 45 1012.0
20260507023055 74 261 7.0 20.0 0.00 0.00 0.00 43 1010.8
20260507021557 74 196 9.0 19.0 0.00 0.00 0.00 44 1010.7
20260507020055 75 176 12.0 21.0 0.00 0.00 0.00 44 1010.7
20260507014554 76 185 10.0 17.0 0.00 0.00 0.00 43 1010.7
20260507013100 76 203 6.0 17.0 0.00 0.00 0.00 43 1010.8
20260507011557 77 220 5.0 15.0 0.00 0.00 0.00 44 1010.7
20260507010053 77 142 8.0 17.0 0.00 0.00 0.00 44 1010.9
20260507004553 78 197 8.0 17.0 0.00 0.00 0.00 42 1010.8
20260507003054 78 192 8.0 15.0 0.00 0.00 0.00 41 1010.8
20260507001553 80 206 4.0 12.0 0.00 0.00 0.00 41 1010.8